| time (UTC) | temp F | wind direction | speed knots | gust knots | rain 1hr in | rain 24hr in | rain mn in | humidity % | barometer mb |
| 20260507221343 | 84 | 67 | 5.2 | 7.8 | 0.00 | 0.00 | 0.00 | 73 | 1015.7 |
| 20260507220839 | 84 | 70 | 6.1 | 11.3 | 0.00 | 0.00 | 0.00 | 73 | 1015.7 |
| 20260507220338 | 84 | 70 | 6.1 | 8.7 | 0.00 | 0.00 | 0.00 | 73 | 1015.8 |
| 20260507215833 | 84 | 65 | 3.5 | 11.3 | 0.00 | 0.00 | 0.00 | 73 | 1015.9 |
| 20260507215331 | 84 | 86 | 5.2 | 11.3 | 0.00 | 0.00 | 0.00 | 73 | 1015.7 |
| 20260507214828 | 84 | 94 | 5.2 | 9.6 | 0.00 | 0.00 | 0.00 | 73 | 1015.4 |
| 20260507214326 | 84 | 2 | 7.0 | 9.6 | 0.00 | 0.00 | 0.00 | 73 | 1015.3 |
| 20260507213826 | 85 | 117 | 8.7 | 9.6 | 0.00 | 0.00 | 0.00 | 72 | 1015.1 |
| 20260507213323 | 85 | 90 | 6.1 | 8.7 | 0.00 | 0.00 | 0.00 | 73 | 1015.2 |
| 20260507212820 | 85 | 60 | 2.6 | 8.7 | 0.00 | 0.00 | 0.00 | 72 | 1014.9 |
| 20260507212316 | 85 | 78 | 6.1 | 8.7 | 0.00 | 0.00 | 0.00 | 72 | 1015.1 |
| 20260507211812 | 85 | 77 | 4.3 | 9.6 | 0.00 | 0.00 | 0.00 | 72 | 1015.2 |
| 20260507211309 | 85 | 61 | 7.8 | 13.0 | 0.00 | 0.00 | 0.00 | 72 | 1015.1 |
| 20260507210806 | 85 | 69 | 5.2 | 13.0 | 0.00 | 0.00 | 0.00 | 72 | 1015.3 |
| 20260507210303 | 85 | 53 | 7.8 | 13.0 | 0.00 | 0.00 | 0.00 | 73 | 1015.2 |
| 20260507205759 | 85 | 114 | 7.8 | 12.2 | 0.00 | 0.00 | 0.00 | 72 | 1015.0 |
| 20260507205257 | 85 | 65 | 9.6 | 13.9 | 0.00 | 0.00 | 0.00 | 71 | 1015.0 |
| 20260507204752 | 86 | 34 | 8.7 | 11.3 | 0.00 | 0.00 | 0.00 | 70 | 1014.9 |
| 20260507204250 | 86 | 57 | 4.3 | 12.2 | 0.00 | 0.00 | 0.00 | 70 | 1014.8 |
| 20260507203748 | 85 | 69 | 4.3 | 13.0 | 0.00 | 0.00 | 0.00 | 72 | 1015.0 |
| 20260507203245 | 86 | 77 | 7.0 | 11.3 | 0.00 | 0.00 | 0.00 | 70 | 1014.8 |
| 20260507202741 | 86 | 78 | 7.0 | 8.7 | 0.00 | 0.00 | 0.00 | 70 | 1014.9 |
| 20260507202237 | 86 | 73 | 6.1 | 12.2 | 0.00 | 0.00 | 0.00 | 70 | 1015.0 |
| 20260507201732 | 87 | 73 | 4.3 | 9.6 | 0.00 | 0.00 | 0.00 | 70 | 1014.8 |
| 20260507201230 | 86 | 80 | 5.2 | 13.0 | 0.00 | 0.00 | 0.00 | 70 | 1015.0 |
| 20260507200726 | 87 | 84 | 7.0 | 8.7 | 0.00 | 0.00 | 0.00 | 70 | 1015.1 |
| 20260507200222 | 87 | 66 | 7.0 | 12.2 | 0.00 | 0.00 | 0.00 | 70 | 1015.1 |
| 20260507195718 | 87 | 71 | 5.2 | 9.6 | 0.00 | 0.00 | 0.00 | 69 | 1015.1 |
| 20260507195216 | 87 | 64 | 6.1 | 8.7 | 0.00 | 0.00 | 0.00 | 69 | 1015.1 |
| 20260507194712 | 87 | 70 | 3.5 | 11.3 | 0.00 | 0.00 | 0.00 | 71 | 1015.2 |
| 20260507194209 | 86 | 40 | 6.1 | 12.2 | 0.00 | 0.00 | 0.00 | 71 | 1015.1 |
| 20260507193705 | 87 | 36 | 4.3 | 13.0 | 0.00 | 0.00 | 0.00 | 71 | 1015.1 |
| 20260507193202 | 86 | 61 | 5.2 | 13.0 | 0.00 | 0.00 | 0.00 | 71 | 1015.0 |
| 20260507192658 | 87 | 48 | 7.8 | 12.2 | 0.00 | 0.00 | 0.00 | 69 | 1015.2 |
| 20260507192155 | 86 | 66 | 6.1 | 12.2 | 0.00 | 0.00 | 0.00 | 70 | 1015.4 |
| 20260507191651 | 87 | 55 | 6.1 | 8.7 | 0.00 | 0.00 | 0.00 | 70 | 1015.5 |
| 20260507191148 | 87 | 72 | 3.5 | 12.2 | 0.00 | 0.00 | 0.00 | 70 | 1015.3 |
| 20260507190645 | 87 | 61 | 5.2 | 11.3 | 0.00 | 0.00 | 0.00 | 70 | 1015.6 |
| 20260507190144 | 87 | 29 | 5.2 | 12.2 | 0.00 | 0.00 | 0.00 | 69 | 1015.4 |
| 20260507185642 | 88 | 40 | 4.3 | 9.6 | 0.00 | 0.00 | 0.00 | 67 | 1015.7 |
| 20260507185138 | 87 | 91 | 3.5 | 11.3 | 0.00 | 0.00 | 0.00 | 69 | 1015.5 |
| 20260507184636 | 87 | 74 | 5.2 | 8.7 | 0.00 | 0.00 | 0.00 | 69 | 1015.5 |
| 20260507184134 | 88 | 43 | 10.4 | 12.2 | 0.00 | 0.00 | 0.00 | 66 | 1015.8 |
| 20260507183630 | 87 | 57 | 7.0 | 12.2 | 0.00 | 0.00 | 0.00 | 69 | 1015.5 |
| 20260507183127 | 87 | 57 | 6.1 | 8.7 | 0.00 | 0.00 | 0.00 | 68 | 1015.5 |
| 20260507182623 | 87 | 54 | 4.3 | 12.2 | 0.00 | 0.00 | 0.00 | 68 | 1015.6 |
| 20260507182120 | 87 | 34 | 7.0 | 12.2 | 0.00 | 0.00 | 0.00 | 68 | 1015.8 |
| 20260507181616 | 87 | 76 | 9.6 | 16.5 | 0.00 | 0.00 | 0.00 | 69 | 1015.6 |
| 20260507181113 | 87 | 50 | 7.0 | 13.9 | 0.00 | 0.00 | 0.00 | 70 | 1015.7 |
| 20260507180609 | 87 | 58 | 8.7 | 14.8 | 0.00 | 0.00 | 0.00 | 69 | 1015.8 |
| 20260507180106 | 87 | 61 | 4.3 | 12.2 | 0.00 | 0.00 | 0.00 | 69 | 1015.7 |
| 20260507175602 | 87 | 58 | 7.8 | 15.6 | 0.00 | 0.00 | 0.00 | 69 | 1016.1 |
| 20260507175100 | 87 | 338 | 7.8 | 14.8 | 0.00 | 0.00 | 0.00 | 70 | 1015.9 |
| 20260507174557 | 87 | 66 | 8.7 | 13.0 | 0.00 | 0.00 | 0.00 | 70 | 1016.0 |
| 20260507174054 | 87 | 82 | 7.0 | 9.6 | 0.00 | 0.00 | 0.00 | 69 | 1016.1 |
| 20260507173551 | 87 | 50 | 6.1 | 11.3 | 0.00 | 0.00 | 0.00 | 69 | 1016.4 |
| 20260507173049 | 88 | 25 | 2.6 | 12.2 | 0.00 | 0.00 | 0.00 | 69 | 1016.3 |
| 20260507172544 | 88 | 29 | 7.0 | 11.3 | 0.00 | 0.00 | 0.00 | 68 | 1016.4 |
| 20260507172042 | 88 | 58 | 5.2 | 9.6 | 0.00 | 0.00 | 0.00 | 68 | 1016.5 |
| 20260507171537 | 88 | 61 | 7.0 | 11.3 | 0.00 | 0.00 | 0.00 | 66 | 1016.6 |
| 20260507171034 | 88 | 65 | 3.5 | 13.9 | 0.00 | 0.00 | 0.00 | 69 | 1016.6 |
| 20260507170530 | 88 | 41 | 7.0 | 11.3 | 0.00 | 0.00 | 0.00 | 67 | 1016.9 |
| 20260507170028 | 87 | 45 | 5.2 | 13.9 | 0.00 | 0.00 | 0.00 | 69 | 1017.1 |
| 20260507165523 | 87 | 66 | 7.8 | 12.2 | 0.00 | 0.00 | 0.00 | 67 | 1016.7 |
| 20260507165020 | 87 | 78 | 7.0 | 11.3 | 0.00 | 0.00 | 0.00 | 69 | 1017.2 |
| 20260507164516 | 86 | 49 | 3.5 | 7.8 | 0.00 | 0.00 | 0.00 | 70 | 1017.0 |
| 20260507164014 | 86 | 39 | 6.1 | 12.2 | 0.00 | 0.00 | 0.00 | 70 | 1017.2 |
| 20260507163510 | 87 | 15 | 6.1 | 8.7 | 0.00 | 0.00 | 0.00 | 70 | 1017.2 |
| 20260507163009 | 88 | 57 | 7.0 | 8.7 | 0.00 | 0.00 | 0.00 | 68 | 1017.2 |
| 20260507162503 | 86 | 47 | 6.1 | 12.2 | 0.00 | 0.00 | 0.00 | 70 | 1017.2 |
| 20260507162000 | 86 | 80 | 6.1 | 9.6 | 0.00 | 0.00 | 0.00 | 70 | 1017.3 |
| 20260507161456 | 87 | 65 | 6.1 | 14.8 | 0.00 | 0.00 | 0.00 | 69 | 1017.5 |
| 20260507160954 | 87 | 54 | 10.4 | 12.2 | 0.00 | 0.00 | 0.00 | 69 | 1017.5 |
| 20260507160449 | 85 | 49 | 3.5 | 9.6 | 0.00 | 0.00 | 0.00 | 73 | 1017.4 |
| 20260507155945 | 85 | 62 | 3.5 | 11.3 | 0.00 | 0.00 | 0.00 | 73 | 1017.6 |
| 20260507155441 | 85 | 88 | 5.2 | 8.7 | 0.00 | 0.00 | 0.00 | 73 | 1017.4 |
| 20260507154939 | 87 | 75 | 5.2 | 8.7 | 0.00 | 0.00 | 0.00 | 71 | 1017.6 |
| 20260507154435 | 87 | 73 | 5.2 | 11.3 | 0.00 | 0.00 | 0.00 | 70 | 1017.5 |
| 20260507153932 | 87 | 58 | 7.0 | 8.7 | 0.00 | 0.00 | 0.00 | 68 | 1017.6 |
| 20260507153429 | 87 | 45 | 6.1 | 8.7 | 0.00 | 0.00 | 0.00 | 69 | 1017.7 |
| 20260507152925 | 86 | 49 | 8.7 | 15.6 | 0.00 | 0.00 | 0.00 | 71 | 1017.7 |
| 20260507152421 | 87 | 60 | 7.8 | 12.2 | 0.00 | 0.00 | 0.00 | 69 | 1017.7 |
| 20260507151917 | 87 | 83 | 6.1 | 12.2 | 0.00 | 0.00 | 0.00 | 70 | 1017.7 |
| 20260507151414 | 87 | 30 | 8.7 | 11.3 | 0.00 | 0.00 | 0.00 | 69 | 1017.8 |
| 20260507150911 | 87 | 27 | 5.2 | 13.0 | 0.00 | 0.00 | 0.00 | 71 | 1017.8 |
| 20260507150408 | 87 | 153 | 3.5 | 7.8 | 0.00 | 0.00 | 0.00 | 70 | 1017.7 |
| 20260507145904 | 86 | 91 | 3.5 | 7.0 | 0.00 | 0.00 | 0.00 | 71 | 1017.8 |
| 20260507145400 | 87 | 43 | 5.2 | 11.3 | 0.00 | 0.00 | 0.00 | 71 | 1018.0 |
| 20260507144857 | 85 | 75 | 5.2 | 7.8 | 0.00 | 0.00 | 0.00 | 73 | 1017.7 |
| 20260507144355 | 85 | 80 | 4.3 | 12.2 | 0.00 | 0.00 | 0.00 | 73 | 1017.8 |
| 20260507143851 | 85 | 45 | 7.0 | 12.2 | 0.00 | 0.00 | 0.00 | 73 | 1017.8 |
| 20260507143349 | 87 | 78 | 5.2 | 11.3 | 0.00 | 0.00 | 0.00 | 70 | 1018.1 |
| 20260507142845 | 88 | 59 | 3.5 | 9.6 | 0.00 | 0.00 | 0.00 | 69 | 1018.0 |
| 20260507142341 | 88 | 18 | 5.2 | 9.6 | 0.00 | 0.00 | 0.00 | 67 | 1018.0 |
| 20260507141838 | 88 | 66 | 3.5 | 7.8 | 0.00 | 0.00 | 0.00 | 68 | 1018.0 |
| 20260507141335 | 87 | 54 | 2.6 | 7.8 | 0.00 | 0.00 | 0.00 | 70 | 1018.2 |
| 20260507140831 | 87 | 51 | 5.2 | 8.7 | 0.00 | 0.00 | 0.00 | 70 | 1017.9 |
| 20260507140328 | 88 | 57 | 3.5 | 9.6 | 0.00 | 0.00 | 0.00 | 68 | 1018.0 |
| 20260507135826 | 88 | 73 | 7.0 | 7.8 | 0.00 | 0.00 | 0.00 | 67 | 1018.2 |
| 20260507135322 | 87 | 100 | 2.6 | 6.1 | 0.00 | 0.00 | 0.00 | 70 | 1018.2 |
| 20260507134820 | 87 | 62 | 4.3 | 7.8 | 0.00 | 0.00 | 0.00 | 71 | 1018.2 |
| 20260507134316 | 87 | 44 | 7.0 | 8.7 | 0.00 | 0.00 | 0.00 | 69 | 1018.1 |
| 20260507133811 | 88 | 66 | 3.5 | 8.7 | 0.00 | 0.00 | 0.00 | 70 | 1018.2 |
| 20260507133308 | 87 | 12 | 2.6 | 7.8 | 0.00 | 0.00 | 0.00 | 64 | 1018.3 |
| 20260507132806 | 88 | 35 | 2.6 | 5.2 | 0.00 | 0.00 | 0.00 | 62 | 1018.3 |
| 20260507132306 | 88 | 42 | 1.7 | 7.0 | 0.00 | 0.00 | 0.00 | 63 | 1018.1 |
| 20260507131759 | 89 | 49 | 2.6 | 5.2 | 0.00 | 0.00 | 0.00 | 63 | 1017.9 |
| 20260507131256 | 87 | 67 | 0.9 | 2.6 | 0.00 | 0.00 | 0.00 | 66 | 1018.1 |
| 20260507130753 | 87 | 80 | 2.6 | 2.6 | 0.00 | 0.00 | 0.00 | 66 | 1017.8 |
| 20260507130251 | 87 | 71 | 1.7 | 3.5 | 0.00 | 0.00 | 0.00 | 66 | 1017.8 |
| 20260507125749 | 87 | 77 | 3.5 | 5.2 | 0.00 | 0.00 | 0.00 | 66 | 1017.8 |
| 20260507125246 | 86 | 77 | 2.6 | 3.5 | 0.00 | 0.00 | 0.00 | 67 | 1017.6 |
| 20260507124743 | 86 | 71 | 2.6 | 6.1 | 0.00 | 0.00 | 0.00 | 68 | 1017.5 |
| 20260507124240 | 85 | 134 | 2.6 | 3.5 | 0.00 | 0.00 | 0.00 | 70 | 1017.7 |
| 20260507123738 | 86 | 93 | 2.6 | 7.0 | 0.00 | 0.00 | 0.00 | 69 | 1017.8 |
| 20260507123236 | 85 | 65 | 1.7 | 2.6 | 0.00 | 0.00 | 0.00 | 70 | 1017.7 |
| 20260507122730 | 85 | 59 | 2.6 | 3.5 | 0.00 | 0.00 | 0.00 | 71 | 1017.7 |
| 20260507122227 | 85 | 41 | 3.5 | 5.2 | 0.00 | 0.00 | 0.00 | 70 | 1017.6 |
| 20260507121722 | 85 | 75 | 4.3 | 7.0 | 0.00 | 0.00 | 0.00 | 69 | 1017.8 |
| 20260507121218 | 85 | 60 | 0.9 | 2.6 | 0.00 | 0.00 | 0.00 | 70 | 1017.5 |
| 20260507120715 | 84 | 87 | 1.7 | 1.7 | 0.00 | 0.00 | 0.00 | 71 | 1017.6 |
| 20260507120212 | 84 | 121 | 1.7 | 3.5 | 0.00 | 0.00 | 0.00 | 71 | 1017.5 |
| 20260507115708 | 84 | 96 | 1.7 | 5.2 | 0.00 | 0.00 | 0.00 | 71 | 1017.4 |
| 20260507115204 | 84 | 71 | 3.5 | 5.2 | 0.00 | 0.00 | 0.00 | 70 | 1017.6 |
| 20260507114659 | 84 | 82 | 0.9 | 1.7 | 0.00 | 0.00 | 0.00 | 71 | 1017.5 |
| 20260507114157 | 84 | 179 | 0.9 | 1.7 | 0.00 | 0.00 | 0.00 | 71 | 1017.1 |
| 20260507113654 | 84 | 120 | 1.7 | 1.7 | 0.00 | 0.00 | 0.00 | 72 | 1017.2 |
| 20260507113151 | 83 | 85 | 0.0 | 2.6 | 0.00 | 0.00 | 0.00 | 74 | 1017.2 |
| 20260507112649 | 83 | 98 | 0.9 | 1.7 | 0.00 | 0.00 | 0.00 | 75 | 1017.2 |
| 20260507112145 | 83 | 186 | 1.7 | 3.5 | 0.00 | 0.00 | 0.00 | 74 | 1017.1 |
| 20260507111643 | 82 | 92 | 0.9 | 1.7 | 0.00 | 0.00 | 0.00 | 77 | 1017.0 |
| 20260507111139 | 82 | 191 | 0.9 | 2.6 | 0.00 | 0.00 | 0.00 | 77 | 1016.9 |
| 20260507110636 | 82 | 109 | 1.7 | 1.7 | 0.00 | 0.00 | 0.00 | 78 | 1017.1 |
| 20260507110132 | 81 | 123 | 0.0 | 1.7 | 0.00 | 0.00 | 0.00 | 79 | 1017.0 |
| 20260507105629 | 81 | 96 | 1.7 | 3.5 | 0.00 | 0.00 | 0.00 | 79 | 1016.9 |
| 20260507105125 | 81 | 167 | 0.9 | 3.5 | 0.00 | 0.00 | 0.00 | 80 | 1016.9 |
| 20260507104623 | 80 | 79 | 1.7 | 2.6 | 0.00 | 0.00 | 0.00 | 80 | 1017.1 |
| 20260507104119 | 80 | 116 | 0.0 | 1.7 | 0.00 | 0.00 | 0.00 | 81 | 1016.9 |
| 20260507103615 | 80 | 146 | 0.9 | 2.6 | 0.00 | 0.00 | 0.00 | 81 | 1017.1 |
| 20260507103112 | 80 | 117 | 0.9 | 0.9 | 0.00 | 0.00 | 0.00 | 81 | 1016.9 |
| 20260507102608 | 79 | 119 | 0.0 | 0.9 | 0.00 | 0.00 | 0.00 | 82 | 1016.9 |
| 20260507102105 | 79 | 136 | 0.0 | 0.9 | 0.00 | 0.00 | 0.00 | 82 | 1016.6 |
| 20260507101601 | 79 | 126 | 0.0 | 1.7 | 0.00 | 0.00 | 0.00 | 83 | 1016.8 |
| 20260507101057 | 78 | 117 | 0.0 | 0.9 | 0.00 | 0.00 | 0.00 | 84 | 1016.8 |
| 20260507100554 | 78 | 107 | 0.9 | 1.7 | 0.00 | 0.00 | 0.00 | 84 | 1016.8 |
| 20260507100052 | 78 | 113 | 0.9 | 0.9 | 0.00 | 0.00 | 0.00 | 84 | 1016.7 |
| 20260507095550 | 78 | 205 | 0.0 | 1.7 | 0.00 | 0.00 | 0.00 | 84 | 1016.4 |
| 20260507095046 | 78 | 190 | 1.7 | 1.7 | 0.00 | 0.00 | 0.00 | 84 | 1016.6 |
| 20260507094542 | 78 | 129 | 0.0 | 0.9 | 0.00 | 0.00 | 0.00 | 84 | 1016.4 |
| 20260507094039 | 78 | 121 | 0.0 | 0.9 | 0.00 | 0.00 | 0.00 | 83 | 1016.4 |
| 20260507093537 | 78 | 160 | 0.0 | 0.9 | 0.00 | 0.00 | 0.00 | 83 | 1016.4 |
| 20260507093036 | 78 | 140 | 0.9 | 1.7 | 0.00 | 0.00 | 0.00 | 83 | 1016.4 |
| 20260507092532 | 78 | 192 | 0.9 | 0.9 | 0.00 | 0.00 | 0.00 | 83 | 1016.3 |
| 20260507092028 | 78 | 114 | 0.0 | 1.7 | 0.00 | 0.00 | 0.00 | 83 | 1016.4 |
| 20260507091525 | 78 | 113 | 0.0 | 0.9 | 0.00 | 0.00 | 0.00 | 83 | 1016.3 |
| 20260507091021 | 78 | 109 | 0.9 | 1.7 | 0.00 | 0.00 | 0.00 | 83 | 1016.5 |
| 20260507090517 | 78 | 106 | 0.9 | 1.7 | 0.00 | 0.00 | 0.00 | 83 | 1016.8 |
| 20260507090014 | 78 | 137 | 0.9 | 1.7 | 0.00 | 0.00 | 0.00 | 84 | 1016.6 |
| 20260507085511 | 78 | 116 | 0.0 | 0.9 | 0.00 | 0.00 | 0.00 | 84 | 1016.5 |
| 20260507085008 | 78 | 109 | 0.0 | 0.9 | 0.00 | 0.00 | 0.00 | 84 | 1016.8 |
| 20260507084505 | 78 | 258 | 0.0 | 0.0 | 0.00 | 0.00 | 0.00 | 84 | 1016.7 |
| 20260507084002 | 78 | 262 | 0.0 | 0.0 | 0.00 | 0.00 | 0.00 | 83 | 1016.6 |
| 20260507083458 | 78 | 231 | 0.0 | 0.0 | 0.00 | 0.00 | 0.00 | 83 | 1016.7 |
| 20260507082954 | 78 | 267 | 0.0 | 0.0 | 0.00 | 0.00 | 0.00 | 83 | 1016.9 |
| 20260507082451 | 79 | 245 | 0.0 | 0.9 | 0.00 | 0.00 | 0.00 | 83 | 1016.6 |
| 20260507081947 | 79 | 265 | 0.0 | 0.9 | 0.00 | 0.00 | 0.00 | 83 | 1016.5 |
| 20260507081444 | 79 | 213 | 0.0 | 0.9 | 0.00 | 0.00 | 0.00 | 83 | 1016.6 |
| 20260507080941 | 79 | 217 | 0.0 | 0.9 | 0.00 | 0.00 | 0.00 | 83 | 1016.6 |
| 20260507080436 | 79 | 150 | 0.0 | 0.9 | 0.00 | 0.00 | 0.00 | 83 | 1016.6 |
| 20260507075932 | 79 | 123 | 0.0 | 0.9 | 0.00 | 0.00 | 0.00 | 83 | 1016.6 |
| 20260507075429 | 79 | 204 | 0.0 | 0.9 | 0.00 | 0.00 | 0.00 | 83 | 1016.6 |
| 20260507074925 | 79 | 209 | 0.9 | 0.9 | 0.00 | 0.00 | 0.00 | 83 | 1016.5 |
| 20260507074422 | 79 | 183 | 0.0 | 0.9 | 0.00 | 0.00 | 0.00 | 83 | 1016.5 |
| 20260507073920 | 79 | 218 | 0.9 | 0.9 | 0.00 | 0.00 | 0.00 | 83 | 1016.5 |
| 20260507073416 | 79 | 99 | 0.0 | 0.9 | 0.00 | 0.00 | 0.00 | 83 | 1016.5 |
| 20260507072913 | 79 | 147 | 0.0 | 0.9 | 0.00 | 0.00 | 0.00 | 83 | 1016.7 |
| 20260507072411 | 79 | 145 | 0.0 | 0.9 | 0.00 | 0.00 | 0.00 | 83 | 1016.6 |
| 20260507071908 | 79 | 224 | 0.0 | 0.0 | 0.00 | 0.00 | 0.00 | 82 | 1016.7 |
| 20260507071405 | 79 | 150 | 0.0 | 0.9 | 0.00 | 0.00 | 0.00 | 83 | 1016.8 |
| 20260507070901 | 79 | 142 | 0.0 | 1.7 | 0.00 | 0.00 | 0.00 | 82 | 1016.6 |
| 20260507070359 | 79 | 132 | 0.0 | 1.7 | 0.00 | 0.00 | 0.00 | 82 | 1016.8 |
| 20260507065855 | 79 | 152 | 0.9 | 1.7 | 0.00 | 0.00 | 0.00 | 82 | 1016.7 |
| 20260507065352 | 79 | 189 | 0.0 | 1.7 | 0.00 | 0.00 | 0.00 | 82 | 1016.8 |
| 20260507064849 | 80 | 194 | 0.0 | 0.9 | 0.00 | 0.00 | 0.00 | 82 | 1016.9 |
| 20260507064348 | 80 | 216 | 0.9 | 2.6 | 0.00 | 0.00 | 0.00 | 82 | 1016.8 |
| 20260507063845 | 80 | 204 | 0.0 | 1.7 | 0.00 | 0.00 | 0.00 | 81 | 1016.9 |
| 20260507063342 | 80 | 217 | 0.9 | 0.9 | 0.00 | 0.00 | 0.00 | 81 | 1017.0 |
| 20260507062838 | 80 | 165 | 0.9 | 0.9 | 0.00 | 0.00 | 0.00 | 81 | 1017.1 |
| 20260507062335 | 80 | 107 | 0.0 | 0.9 | 0.00 | 0.00 | 0.00 | 81 | 1017.2 |
| 20260507061833 | 80 | 125 | 0.0 | 0.9 | 0.00 | 0.00 | 0.00 | 81 | 1017.3 |
| 20260507061331 | 80 | 178 | 0.9 | 1.7 | 0.00 | 0.00 | 0.00 | 81 | 1017.2 |
| 20260507060829 | 80 | 133 | 0.9 | 1.7 | 0.00 | 0.00 | 0.00 | 81 | 1017.3 |
| 20260507060326 | 80 | 144 | 0.9 | 1.7 | 0.00 | 0.00 | 0.00 | 81 | 1017.3 |
| 20260507055823 | 80 | 201 | 0.9 | 1.7 | 0.00 | 0.00 | 0.00 | 81 | 1017.4 |
| 20260507055318 | 80 | 83 | 0.0 | 1.7 | 0.00 | 0.00 | 0.00 | 81 | 1017.4 |
| 20260507054815 | 80 | 201 | 1.7 | 1.7 | 0.00 | 0.00 | 0.00 | 81 | 1017.6 |
| 20260507054311 | 80 | 88 | 0.9 | 1.7 | 0.00 | 0.00 | 0.00 | 81 | 1017.4 |
| 20260507053808 | 80 | 210 | 0.0 | 2.6 | 0.00 | 0.00 | 0.00 | 81 | 1017.8 |
| 20260507053306 | 80 | 94 | 0.0 | 1.7 | 0.00 | 0.00 | 0.00 | 81 | 1017.7 |
| 20260507052805 | 80 | 127 | 1.7 | 2.6 | 0.00 | 0.00 | 0.00 | 81 | 1017.6 |
| 20260507052301 | 80 | 145 | 0.9 | 1.7 | 0.00 | 0.00 | 0.00 | 81 | 1017.8 |
| 20260507051759 | 80 | 183 | 0.9 | 0.9 | 0.00 | 0.00 | 0.00 | 81 | 1017.9 |
| 20260507051255 | 80 | 108 | 0.9 | 0.9 | 0.00 | 0.00 | 0.00 | 81 | 1018.0 |
| 20260507050752 | 80 | 135 | 0.9 | 2.6 | 0.00 | 0.00 | 0.00 | 80 | 1018.0 |
| 20260507050249 | 80 | 110 | 0.9 | 1.7 | 0.00 | 0.00 | 0.00 | 80 | 1017.7 |
| 20260507045746 | 81 | 122 | 1.7 | 3.5 | 0.00 | 0.00 | 0.00 | 80 | 1018.2 |
| 20260507045242 | 81 | 88 | 0.9 | 3.5 | 0.00 | 0.00 | 0.00 | 80 | 1018.2 |
| 20260507044740 | 81 | 179 | 1.7 | 2.6 | 0.00 | 0.00 | 0.00 | 80 | 1018.4 |
| 20260507044236 | 81 | 154 | 0.9 | 5.2 | 0.00 | 0.00 | 0.00 | 80 | 1018.3 |
| 20260507043732 | 81 | 97 | 1.7 | 3.5 | 0.00 | 0.00 | 0.00 | 80 | 1018.3 |
| 20260507043229 | 81 | 100 | 1.7 | 3.5 | 0.00 | 0.00 | 0.00 | 80 | 1018.4 |
| 20260507042725 | 81 | 96 | 1.7 | 2.6 | 0.00 | 0.00 | 0.00 | 80 | 1018.5 |
| 20260507042220 | 81 | 97 | 1.7 | 2.6 | 0.00 | 0.00 | 0.00 | 80 | 1018.4 |
| 20260507041718 | 81 | 82 | 0.9 | 2.6 | 0.00 | 0.00 | 0.00 | 80 | 1018.6 |
| 20260507041214 | 81 | 67 | 1.7 | 3.5 | 0.00 | 0.00 | 0.00 | 80 | 1018.7 |
| 20260507040711 | 81 | 94 | 2.6 | 3.5 | 0.00 | 0.00 | 0.00 | 80 | 1018.8 |
| 20260507040207 | 81 | 114 | 0.9 | 3.5 | 0.00 | 0.00 | 0.00 | 80 | 1018.9 |
| 20260507035703 | 81 | 93 | 1.7 | 2.6 | 0.00 | 0.00 | 0.00 | 79 | 1018.9 |
| 20260507035159 | 81 | 112 | 2.6 | 3.5 | 0.00 | 0.00 | 0.00 | 79 | 1019.0 |
| 20260507034656 | 81 | 118 | 0.9 | 2.6 | 0.00 | 0.00 | 0.00 | 79 | 1018.9 |
| 20260507034154 | 81 | 106 | 2.6 | 2.6 | 0.00 | 0.00 | 0.00 | 79 | 1018.9 |
| 20260507033652 | 81 | 119 | 1.7 | 6.1 | 0.00 | 0.00 | 0.00 | 79 | 1018.8 |
| 20260507033149 | 81 | 119 | 4.3 | 6.1 | 0.00 | 0.00 | 0.00 | 78 | 1019.0 |
| 20260507032647 | 81 | 136 | 0.9 | 2.6 | 0.00 | 0.00 | 0.00 | 78 | 1019.0 |
| 20260507032142 | 81 | 75 | 1.7 | 1.7 | 0.00 | 0.00 | 0.00 | 77 | 1019.0 |
| 20260507031639 | 81 | 91 | 1.7 | 2.6 | 0.00 | 0.00 | 0.00 | 77 | 1019.0 |
| 20260507031135 | 81 | 81 | 0.9 | 1.7 | 0.00 | 0.00 | 0.00 | 78 | 1019.0 |
| 20260507030632 | 81 | 112 | 1.7 | 2.6 | 0.00 | 0.00 | 0.00 | 78 | 1019.0 |
| 20260507030131 | 81 | 121 | 0.0 | 1.7 | 0.00 | 0.00 | 0.00 | 78 | 1019.0 |
| 20260507025627 | 81 | 191 | 0.0 | 1.7 | 0.00 | 0.00 | 0.00 | 78 | 1019.2 |
| 20260507025124 | 81 | 194 | 0.9 | 1.7 | 0.00 | 0.00 | 0.00 | 78 | 1018.9 |
| 20260507024622 | 81 | 144 | 0.0 | 1.7 | 0.00 | 0.00 | 0.00 | 78 | 1019.1 |
| 20260507024119 | 82 | 112 | 0.9 | 1.7 | 0.00 | 0.00 | 0.00 | 78 | 1019.1 |
| 20260507023614 | 82 | 182 | 0.0 | 1.7 | 0.00 | 0.00 | 0.00 | 77 | 1019.1 |
| 20260507023112 | 82 | 179 | 0.9 | 2.6 | 0.00 | 0.00 | 0.00 | 77 | 1019.1 |
| 20260507022609 | 82 | 85 | 1.7 | 2.6 | 0.00 | 0.00 | 0.00 | 77 | 1018.8 |
| 20260507022104 | 82 | 202 | 0.9 | 1.7 | 0.00 | 0.00 | 0.00 | 77 | 1019.0 |
| 20260507021601 | 82 | 108 | 1.7 | 3.5 | 0.00 | 0.00 | 0.00 | 77 | 1018.8 |
| 20260507021057 | 82 | 122 | 1.7 | 2.6 | 0.00 | 0.00 | 0.00 | 76 | 1018.8 |
| 20260507020555 | 82 | 102 | 2.6 | 5.2 | 0.00 | 0.00 | 0.00 | 76 | 1018.6 |
| 20260507020051 | 82 | 103 | 3.5 | 5.2 | 0.00 | 0.00 | 0.00 | 75 | 1018.6 |
| 20260507015550 | 82 | 119 | 0.9 | 2.6 | 0.00 | 0.00 | 0.00 | 75 | 1018.7 |
| 20260507015047 | 82 | 91 | 0.9 | 5.2 | 0.00 | 0.00 | 0.00 | 74 | 1018.6 |
| 20260507014543 | 82 | 78 | 1.7 | 5.2 | 0.00 | 0.00 | 0.00 | 74 | 1018.4 |
| 20260507014039 | 82 | 119 | 4.3 | 5.2 | 0.00 | 0.00 | 0.00 | 73 | 1018.5 |
| 20260507013536 | 82 | 129 | 1.7 | 2.6 | 0.00 | 0.00 | 0.00 | 73 | 1018.5 |
| 20260507013033 | 82 | 82 | 2.6 | 3.5 | 0.00 | 0.00 | 0.00 | 73 | 1018.3 |
| 20260507012530 | 82 | 110 | 0.9 | 2.6 | 0.00 | 0.00 | 0.00 | 73 | 1018.4 |
| 20260507012026 | 82 | 134 | 2.6 | 7.0 | 0.00 | 0.00 | 0.00 | 73 | 1018.3 |
| 20260507011524 | 82 | 119 | 1.7 | 3.5 | 0.00 | 0.00 | 0.00 | 72 | 1018.4 |
| 20260507011020 | 82 | 158 | 1.7 | 3.5 | 0.00 | 0.00 | 0.00 | 72 | 1018.3 |
| 20260507010514 | 83 | 125 | 1.7 | 5.2 | 0.00 | 0.00 | 0.00 | 72 | 1018.2 |
| 20260507010011 | 83 | 162 | 2.6 | 3.5 | 0.00 | 0.00 | 0.00 | 72 | 1018.2 |
| 20260507005509 | 83 | 98 | 2.6 | 5.2 | 0.00 | 0.00 | 0.00 | 71 | 1018.1 |
| 20260507005005 | 83 | 173 | 0.9 | 5.2 | 0.00 | 0.00 | 0.00 | 71 | 1018.0 |
| 20260507004502 | 83 | 97 | 3.5 | 7.0 | 0.00 | 0.00 | 0.00 | 72 | 1018.0 |
| 20260507004000 | 83 | 153 | 1.7 | 5.2 | 0.00 | 0.00 | 0.00 | 71 | 1018.1 |
| 20260507003454 | 83 | 167 | 3.5 | 6.1 | 0.00 | 0.00 | 0.00 | 71 | 1017.9 |
| 20260507002950 | 83 | 151 | 1.7 | 5.2 | 0.00 | 0.00 | 0.00 | 72 | 1018.0 |
| 20260507002447 | 83 | 192 | 4.3 | 6.1 | 0.00 | 0.00 | 0.00 | 71 | 1017.8 |
| 20260507001943 | 83 | 175 | 1.7 | 5.2 | 0.00 | 0.00 | 0.00 | 71 | 1018.0 |
| 20260507001440 | 83 | 183 | 1.7 | 5.2 | 0.00 | 0.00 | 0.00 | 71 | 1018.0 |
| 20260507000938 | 83 | 176 | 1.7 | 7.0 | 0.00 | 0.00 | 0.00 | 70 | 1018.0 |
| 20260507000435 | 84 | 183 | 0.9 | 3.5 | 0.00 | 0.00 | 0.00 | 69 | 1017.6 |
| 20260506235929 | 84 | 105 | 3.5 | 5.2 | 0.00 | 0.00 | 0.00 | 68 | 1017.5 |
| 20260506235426 | 84 | 132 | 3.5 | 5.2 | 0.00 | 0.00 | 0.00 | 68 | 1017.5 |
| 20260506234921 | 84 | 118 | 1.7 | 3.5 | 0.00 | 0.00 | 0.00 | 67 | 1017.4 |
| 20260506234420 | 84 | 140 | 1.7 | 7.0 | 0.00 | 0.00 | 0.00 | 66 | 1017.4 |
| 20260506233917 | 84 | 96 | 4.3 | 7.8 | 0.00 | 0.00 | 0.00 | 66 | 1017.1 |
| 20260506233413 | 84 | 192 | 1.7 | 5.2 | 0.00 | 0.00 | 0.00 | 66 | 1017.3 |
| 20260506232910 | 84 | 81 | 0.9 | 7.0 | 0.00 | 0.00 | 0.00 | 65 | 1017.2 |
| 20260506232406 | 85 | 126 | 2.6 | 7.0 | 0.00 | 0.00 | 0.00 | 66 | 1017.1 |
| 20260506231902 | 85 | 86 | 3.5 | 6.1 | 0.00 | 0.00 | 0.00 | 65 | 1017.0 |
| 20260506231400 | 85 | 115 | 4.3 | 9.6 | 0.00 | 0.00 | 0.00 | 65 | 1017.1 |
| 20260506230857 | 85 | 148 | 2.6 | 6.1 | 0.00 | 0.00 | 0.00 | 65 | 1017.0 |
| 20260506230354 | 85 | 91 | 3.5 | 5.2 | 0.00 | 0.00 | 0.00 | 64 | 1016.9 |
| 20260506225850 | 85 | 52 | 2.6 | 7.8 | 0.00 | 0.00 | 0.00 | 63 | 1016.6 |
| 20260506225348 | 85 | 119 | 2.6 | 7.8 | 0.00 | 0.00 | 0.00 | 62 | 1016.6 |
| 20260506224844 | 85 | 128 | 3.5 | 7.0 | 0.00 | 0.00 | 0.00 | 62 | 1016.5 |
| 20260506224342 | 86 | 91 | 5.2 | 7.0 | 0.00 | 0.00 | 0.00 | 63 | 1016.3 |
| 20260506223838 | 86 | 109 | 3.5 | 6.1 | 0.00 | 0.00 | 0.00 | 63 | 1016.4 |
| 20260506223333 | 86 | 91 | 2.6 | 9.6 | 0.00 | 0.00 | 0.00 | 63 | 1016.2 |
| 20260506222831 | 87 | 163 | 2.6 | 7.0 | 0.00 | 0.00 | 0.00 | 61 | 1016.1 |
| 20260506222326 | 87 | 145 | 4.3 | 7.0 | 0.00 | 0.00 | 0.00 | 60 | 1016.0 |
| 20260506221824 | 87 | 121 | 6.1 | 7.0 | 0.00 | 0.00 | 0.00 | 60 | 1016.2 |